Time,TemperatureF,DewpointF,PressureIn,WindDirection,WindDirectionDegrees,WindSpeedMPH,WindSpeedGustMPH,Humidity,HourlyPrecipIn,Conditions,Clouds,dailyrainin,SoftwareType,DateUTC
2013-02-04 00:00:00,28.1,20.6,29.76,SSW,202,1.0,3.0,73,0.00,,,0.00,Wunderground v.1.15,2013-02-04 06:00:00,
2013-02-04 00:10:00,28.5,20.9,29.76,South,186,1.0,1.0,73,0.00,,,0.00,Wunderground v.1.15,2013-02-04 06:10:00,
2013-02-04 00:20:00,29.1,21.5,29.75,SW,218,1.0,1.0,73,0.00,,,0.00,Wunderground v.1.15,2013-02-04 06:20:00,
2013-02-04 00:30:00,29.8,21.9,29.75,South,187,1.0,1.0,72,0.00,,,0.00,Wunderground v.1.15,2013-02-04 06:30:00,
2013-02-04 00:40:00,30.4,22.4,29.75,SSW,208,1.0,1.0,72,0.00,,,0.00,Wunderground v.1.15,2013-02-04 06:40:00,
2013-02-04 00:50:00,31.0,22.7,29.74,SSW,195,1.0,5.0,71,0.00,,,0.00,Wunderground v.1.15,2013-02-04 06:50:00,
2013-02-04 01:00:00,31.6,23.3,29.73,South,172,1.0,1.0,71,0.00,,,0.00,Wunderground v.1.15,2013-02-04 07:00:00,
2013-02-04 01:10:00,32.1,23.4,29.73,SSW,194,1.0,1.0,70,0.00,,,0.00,Wunderground v.1.15,2013-02-04 07:10:00,
2013-02-04 01:20:00,32.5,23.8,29.73,SSW,210,1.0,1.0,70,0.00,,,0.00,Wunderground v.1.15,2013-02-04 07:20:00,
2013-02-04 01:30:00,32.8,23.7,29.72,South,176,1.0,1.0,69,0.00,,,0.00,Wunderground v.1.15,2013-02-04 07:30:00,
2013-02-04 01:40:00,32.9,23.8,29.72,South,180,1.0,6.0,69,0.00,,,0.00,Wunderground v.1.15,2013-02-04 07:40:00,
2013-02-04 01:50:00,33.1,24.0,29.72,South,186,1.0,1.0,69,0.00,,,0.00,Wunderground v.1.15,2013-02-04 07:50:00,
2013-02-04 02:00:00,33.1,24.0,29.72,SW,222,0.0,6.0,69,0.00,,,0.00,Wunderground v.1.15,2013-02-04 08:00:00,
2013-02-04 02:10:00,33.1,24.0,29.72,SSE,162,0.0,6.0,69,0.00,,,0.00,Wunderground v.1.15,2013-02-04 08:10:00,
2013-02-04 02:20:00,33.2,24.1,29.72,SW,226,0.0,6.0,69,0.00,,,0.00,Wunderground v.1.15,2013-02-04 08:20:00,
2013-02-04 02:30:00,33.2,24.5,29.72,SW,228,0.0,6.0,70,0.00,,,0.00,Wunderground v.1.15,2013-02-04 08:30:00,
2013-02-04 02:40:00,33.1,24.4,29.72,SSW,194,0.0,6.0,70,0.00,,,0.00,Wunderground v.1.15,2013-02-04 08:40:00,
2013-02-04 02:50:00,33.2,24.5,29.72,SW,227,0.0,6.0,70,0.00,,,0.00,Wunderground v.1.15,2013-02-04 08:50:00,
2013-02-04 03:00:00,33.4,24.7,29.72,WSW,238,0.0,6.0,70,0.00,,,0.00,Wunderground v.1.15,2013-02-04 09:00:00,
2013-02-04 03:10:00,33.7,25.0,29.72,West,261,1.0,1.0,70,0.00,,,0.00,Wunderground v.1.15,2013-02-04 09:10:00,
2013-02-04 03:20:00,34.0,25.2,29.72,West,275,0.0,6.0,70,0.00,,,0.00,Wunderground v.1.15,2013-02-04 09:20:00,
2013-02-04 03:30:00,34.3,25.5,29.72,West,275,0.0,6.0,70,0.00,,,0.00,Wunderground v.1.15,2013-02-04 09:30:00,
2013-02-04 03:40:00,34.3,25.5,29.72,West,275,0.0,6.0,70,0.00,,,0.00,Wunderground v.1.15,2013-02-04 09:40:00,
2013-02-04 03:50:00,34.3,25.2,29.72,West,275,0.0,6.0,69,0.00,,,0.00,Wunderground v.1.15,2013-02-04 09:50:00,
2013-02-04 04:00:00,34.0,25.2,29.72,West,275,0.0,6.0,70,0.00,,,0.00,Wunderground v.1.15,2013-02-04 10:00:00,
2013-02-04 04:10:00,33.8,25.0,29.72,West,275,0.0,6.0,70,0.00,,,0.00,Wunderground v.1.15,2013-02-04 10:10:00,
2013-02-04 04:20:00,33.7,25.0,29.72,West,276,0.0,6.0,70,0.00,,,0.00,Wunderground v.1.15,2013-02-04 10:20:00,
2013-02-04 04:30:00,33.5,25.1,29.73,West,276,0.0,6.0,71,0.00,,,0.00,Wunderground v.1.15,2013-02-04 10:30:00,
2013-02-04 04:40:00,33.4,25.0,29.73,West,276,0.0,6.0,71,0.00,,,0.00,Wunderground v.1.15,2013-02-04 10:40:00,
2013-02-04 04:50:00,33.4,25.0,29.73,NW,313,0.0,6.0,71,0.00,,,0.00,Wunderground v.1.15,2013-02-04 10:50:00,
2013-02-04 05:00:00,33.4,25.3,29.74,NNW,328,1.0,1.0,72,0.00,,,0.00,Wunderground v.1.15,2013-02-04 11:00:00,
2013-02-04 05:10:00,33.2,25.1,29.74,NW,325,1.0,1.0,72,0.00,,,0.00,Wunderground v.1.15,2013-02-04 11:10:00,
2013-02-04 05:20:00,32.9,24.9,29.75,NNW,329,1.0,6.0,72,0.00,,,0.00,Wunderground v.1.15,2013-02-04 11:20:00,
2013-02-04 05:30:00,32.7,25.0,29.75,North,355,1.0,6.0,73,0.00,,,0.00,Wunderground v.1.15,2013-02-04 11:30:00,
2013-02-04 05:40:00,32.2,24.8,29.75,NNW,338,1.0,6.0,74,0.00,,,0.00,Wunderground v.1.15,2013-02-04 11:40:00,
2013-02-04 05:50:00,31.8,24.5,29.76,North,355,2.0,2.0,74,0.00,,,0.00,Wunderground v.1.15,2013-02-04 11:50:00,
2013-02-04 06:00:00,31.0,23.7,29.76,North,355,1.0,6.0,74,0.00,,,0.00,Wunderground v.1.15,2013-02-04 12:00:00,
2013-02-04 06:10:00,30.3,23.0,29.76,North,5,2.0,2.0,74,0.00,,,0.00,Wunderground v.1.15,2013-02-04 12:10:00,
2013-02-04 06:20:00,29.5,22.2,29.78,North,350,3.0,6.0,74,0.00,,,0.00,Wunderground v.1.15,2013-02-04 12:20:00,
2013-02-04 06:30:00,28.7,21.5,29.78,North,360,3.0,6.0,74,0.00,,,0.00,Wunderground v.1.15,2013-02-04 12:30:00,
2013-02-04 06:40:00,27.8,20.6,29.78,North,355,3.0,6.0,74,0.00,,,0.00,Wunderground v.1.15,2013-02-04 12:40:00,
2013-02-04 06:50:00,27.0,19.8,29.79,NNE,17,3.0,6.0,74,0.00,,,0.00,Wunderground v.1.15,2013-02-04 12:50:00,
2013-02-04 07:00:00,26.4,19.5,29.81,North,5,2.0,6.0,75,0.00,,,0.00,Wunderground v.1.15,2013-02-04 13:00:00,
2013-02-04 07:10:00,25.7,18.6,29.81,North,5,4.0,6.0,74,0.00,,,0.00,Wunderground v.1.15,2013-02-04 13:10:00,
2013-02-04 07:20:00,25.0,17.9,29.82,NNW,345,4.0,4.0,74,0.00,,,0.00,Wunderground v.1.15,2013-02-04 13:20:00,
2013-02-04 07:30:00,24.7,17.6,29.83,NNW,329,3.0,6.0,74,0.00,,,0.00,Wunderground v.1.15,2013-02-04 13:30:00,
2013-02-04 07:40:00,24.4,17.6,29.83,NNW,344,3.0,3.0,75,0.00,,,0.00,Wunderground v.1.15,2013-02-04 13:40:00,
2013-02-04 07:50:00,24.2,17.7,29.84,NNW,330,3.0,3.0,76,0.00,,,0.00,Wunderground v.1.15,2013-02-04 13:50:00,
2013-02-04 08:00:00,24.1,17.6,29.85,NNW,331,1.0,1.0,76,0.00,,,0.00,Wunderground v.1.15,2013-02-04 14:00:00,
2013-02-04 08:10:00,24.1,17.9,29.85,NW,323,1.0,1.0,77,0.00,,,0.00,Wunderground v.1.15,2013-02-04 14:10:00,
2013-02-04 08:20:00,24.2,18.0,29.86,NNE,17,1.0,1.0,77,0.00,,,0.00,Wunderground v.1.15,2013-02-04 14:20:00,
2013-02-04 08:30:00,24.2,18.3,29.87,NNE,12,2.0,2.0,78,0.00,,,0.00,Wunderground v.1.15,2013-02-04 14:30:00,
2013-02-04 08:40:00,24.2,18.3,29.87,North,350,2.0,6.0,78,0.00,,,0.00,Wunderground v.1.15,2013-02-04 14:40:00,
2013-02-04 08:50:00,24.2,18.3,29.87,ENE,61,2.0,2.0,78,0.00,,,0.00,Wunderground v.1.15,2013-02-04 14:50:00,
2013-02-04 09:00:00,24.1,18.5,29.88,NNE,28,1.0,6.0,79,0.00,,,0.00,Wunderground v.1.15,2013-02-04 15:00:00,
2013-02-04 09:10:00,23.6,17.7,29.88,NNE,13,3.0,3.0,78,0.00,,,0.00,Wunderground v.1.15,2013-02-04 15:10:00,
2013-02-04 09:20:00,23.2,17.4,29.89,North,11,3.0,6.0,78,0.00,,,0.00,Wunderground v.1.15,2013-02-04 15:20:00,
2013-02-04 09:30:00,22.7,17.2,29.88,NW,321,3.0,3.0,79,0.00,,,0.00,Wunderground v.1.15,2013-02-04 15:30:00,
2013-02-04 09:40:00,22.5,17.3,29.88,NNW,340,3.0,6.0,80,0.00,,,0.00,Wunderground v.1.15,2013-02-04 15:40:00,
2013-02-04 09:50:00,22.1,16.9,29.89,NW,311,3.0,6.0,80,0.00,,,0.00,Wunderground v.1.15,2013-02-04 15:50:00,
2013-02-04 10:00:00,21.9,16.7,29.89,North,360,3.0,7.0,80,0.00,,,0.00,Wunderground v.1.15,2013-02-04 16:00:00,
2013-02-04 10:10:00,21.4,16.2,29.89,NNW,342,4.0,4.0,80,0.00,,,0.00,Wunderground v.1.15,2013-02-04 16:10:00,
2013-02-04 10:20:00,21.6,16.1,29.92,North,9,3.0,6.0,79,0.00,,,0.00,Wunderground v.1.15,2013-02-04 16:20:00,
2013-02-04 10:30:00,21.8,16.3,29.93,NNE,26,2.0,6.0,79,0.00,,,0.00,Wunderground v.1.15,2013-02-04 16:30:00,
2013-02-04 10:40:00,21.8,16.0,29.93,NNW,334,3.0,3.0,78,0.00,,,0.00,Wunderground v.1.15,2013-02-04 16:40:00,
2013-02-04 10:50:00,21.6,15.8,29.94,North,5,3.0,3.0,78,0.00,,,0.00,Wunderground v.1.15,2013-02-04 16:50:00,
2013-02-04 11:00:00,21.9,15.8,29.95,NE,34,2.0,7.0,77,0.00,,,0.00,Wunderground v.1.15,2013-02-04 17:00:00,
2013-02-04 11:10:00,21.9,15.5,29.95,North,355,3.0,6.0,76,0.00,,,0.00,Wunderground v.1.15,2013-02-04 17:10:00,
2013-02-04 11:20:00,22.1,15.7,29.97,NNW,336,3.0,6.0,76,0.00,,,0.00,Wunderground v.1.15,2013-02-04 17:20:00,
2013-02-04 11:30:00,21.6,15.2,29.97,NNW,337,3.0,3.0,76,0.00,,,0.00,Wunderground v.1.15,2013-02-04 17:30:00,
2013-02-04 11:40:00,21.3,14.6,29.97,NNW,333,3.0,6.0,75,0.00,,,0.00,Wunderground v.1.15,2013-02-04 17:40:00,
2013-02-04 11:50:00,22.1,15.1,29.96,North,360,3.0,3.0,74,0.00,,,0.00,Wunderground v.1.15,2013-02-04 17:50:00,
2013-02-04 12:00:00,22.2,15.2,29.95,NNE,24,2.0,2.0,74,0.00,,,0.00,Wunderground v.1.15,2013-02-04 18:00:00,
2013-02-04 12:10:00,22.1,15.4,29.95,NNE,28,2.0,6.0,75,0.00,,,0.00,Wunderground v.1.15,2013-02-04 18:10:00,
2013-02-04 12:20:00,22.9,15.8,29.95,North,5,2.0,6.0,74,0.00,,,0.00,Wunderground v.1.15,2013-02-04 18:20:00,
2013-02-04 12:30:00,23.3,15.9,29.94,NNE,24,2.0,7.0,73,0.00,,,0.00,Wunderground v.1.15,2013-02-04 18:30:00,
2013-02-04 12:40:00,23.8,16.4,29.94,NNE,12,2.0,6.0,73,0.00,,,0.00,Wunderground v.1.15,2013-02-04 18:40:00,
2013-02-04 12:50:00,23.6,16.5,29.93,NNE,14,3.0,3.0,74,0.00,,,0.00,Wunderground v.1.15,2013-02-04 18:50:00,
2013-02-04 13:00:00,24.1,16.4,29.92,NNW,345,3.0,3.0,72,0.00,,,0.00,Wunderground v.1.15,2013-02-04 19:00:00,
2013-02-04 13:10:00,25.0,16.9,29.92,NNE,25,2.0,6.0,71,0.00,,,0.00,Wunderground v.1.15,2013-02-04 19:10:00,
2013-02-04 13:20:00,25.0,16.9,29.92,NNE,16,2.0,6.0,71,0.00,,,0.00,Wunderground v.1.15,2013-02-04 19:20:00,
2013-02-04 13:30:00,24.7,16.6,29.92,NNE,24,2.0,2.0,71,0.00,,,0.00,Wunderground v.1.15,2013-02-04 19:30:00,
2013-02-04 13:40:00,25.7,17.3,29.92,East,81,1.0,1.0,70,0.00,,,0.00,Wunderground v.1.15,2013-02-04 19:40:00,
2013-02-04 13:50:00,25.8,17.0,29.91,NNE,17,1.0,6.0,69,0.00,,,0.00,Wunderground v.1.15,2013-02-04 19:50:00,
2013-02-04 14:00:00,25.0,16.6,29.92,NNE,22,1.0,1.0,70,0.00,,,0.00,Wunderground v.1.15,2013-02-04 20:00:00,
2013-02-04 14:10:00,25.0,16.6,29.92,NW,321,1.0,1.0,70,0.00,,,0.00,Wunderground v.1.15,2013-02-04 20:10:00,
2013-02-04 14:20:00,25.3,17.2,29.94,North,350,0.0,6.0,71,0.00,,,0.00,Wunderground v.1.15,2013-02-04 20:20:00,
2013-02-04 14:30:00,24.8,16.7,29.95,North,355,1.0,1.0,71,0.00,,,0.00,Wunderground v.1.15,2013-02-04 20:30:00,
2013-02-04 14:40:00,24.7,16.6,29.95,North,355,0.0,6.0,71,0.00,,,0.00,Wunderground v.1.15,2013-02-04 20:40:00,
2013-02-04 14:50:00,24.8,16.7,29.95,North,351,0.0,6.0,71,0.00,,,0.00,Wunderground v.1.15,2013-02-04 20:50:00,
2013-02-04 15:00:00,25.0,16.9,29.95,North,349,0.0,6.0,71,0.00,,,0.00,Wunderground v.1.15,2013-02-04 21:00:00,
2013-02-04 15:10:00,25.1,17.0,29.95,NNW,348,0.0,6.0,71,0.00,,,0.00,Wunderground v.1.15,2013-02-04 21:10:00,
2013-02-04 15:20:00,25.0,16.9,29.96,NNW,334,1.0,6.0,71,0.00,,,0.00,Wunderground v.1.15,2013-02-04 21:20:00,
2013-02-04 15:30:00,24.8,16.7,29.96,NNW,334,0.0,6.0,71,0.00,,,0.00,Wunderground v.1.15,2013-02-04 21:30:00,
2013-02-04 15:40:00,25.0,16.9,29.96,NNW,327,0.0,6.0,71,0.00,,,0.00,Wunderground v.1.15,2013-02-04 21:40:00,
2013-02-04 15:50:00,25.1,17.0,29.96,NNW,327,0.0,6.0,71,0.00,,,0.00,Wunderground v.1.15,2013-02-04 21:50:00,
2013-02-04 16:00:00,25.1,17.0,29.96,NNW,327,0.0,6.0,71,0.00,,,0.00,Wunderground v.1.15,2013-02-04 22:00:00,
2013-02-04 16:10:00,25.1,17.0,29.96,NNW,327,0.0,6.0,71,0.00,,,0.00,Wunderground v.1.15,2013-02-04 22:10:00,
2013-02-04 16:20:00,25.1,17.0,29.95,NNW,327,0.0,6.0,71,0.00,,,0.00,Wunderground v.1.15,2013-02-04 22:20:00,
2013-02-04 16:30:00,24.8,16.7,29.94,NNW,327,0.0,6.0,71,0.00,,,0.00,Wunderground v.1.15,2013-02-04 22:30:00,
2013-02-04 16:40:00,24.7,16.6,29.94,NNW,327,0.0,6.0,71,0.00,,,0.00,Wunderground v.1.15,2013-02-04 22:40:00,
2013-02-04 16:50:00,24.5,16.4,29.93,NNW,327,0.0,6.0,71,0.00,,,0.00,Wunderground v.1.15,2013-02-04 22:50:00,
2013-02-04 17:00:00,24.2,16.1,29.93,NNW,327,0.0,6.0,71,0.00,,,0.00,Wunderground v.1.15,2013-02-04 23:00:00,
2013-02-04 17:10:00,24.1,16.1,29.93,NNW,327,0.0,6.0,71,0.00,,,0.00,Wunderground v.1.15,2013-02-04 23:10:00,
2013-02-04 17:20:00,23.9,15.9,29.92,NNW,327,0.0,6.0,71,0.00,,,0.00,Wunderground v.1.15,2013-02-04 23:20:00,
2013-02-04 17:30:00,23.8,16.1,29.92,NNW,327,0.0,6.0,72,0.00,,,0.00,Wunderground v.1.15,2013-02-04 23:30:00,
2013-02-04 17:40:00,23.6,15.9,29.92,NNW,327,0.0,6.0,72,0.00,,,0.00,Wunderground v.1.15,2013-02-04 23:40:00,
2013-02-04 17:50:00,23.5,16.1,29.93,NNW,327,0.0,6.0,73,0.00,,,0.00,Wunderground v.1.15,2013-02-04 23:50:00,
2013-02-04 18:00:00,23.3,15.9,29.93,NNW,327,1.0,1.0,73,0.00,,,0.00,Wunderground v.1.15,2013-02-05 00:00:00,
2013-02-04 18:10:00,23.2,15.8,29.93,NNW,327,0.0,6.0,73,0.00,,,0.00,Wunderground v.1.15,2013-02-05 00:10:00,
2013-02-04 18:20:00,23.0,15.6,29.93,NNW,327,0.0,6.0,73,0.00,,,0.00,Wunderground v.1.15,2013-02-05 00:20:00,
2013-02-04 18:30:00,22.9,15.5,29.94,NNW,327,0.0,6.0,73,0.00,,,0.00,Wunderground v.1.15,2013-02-05 00:30:00,
2013-02-04 18:40:00,22.9,15.5,29.94,NNW,327,0.0,6.0,73,0.00,,,0.00,Wunderground v.1.15,2013-02-05 00:40:00,
2013-02-04 18:50:00,22.7,15.7,29.94,NNW,327,0.0,6.0,74,0.00,,,0.00,Wunderground v.1.15,2013-02-05 00:50:00,
2013-02-04 19:00:00,22.5,15.5,29.93,NNW,327,0.0,6.0,74,0.00,,,0.00,Wunderground v.1.15,2013-02-05 01:00:00,
2013-02-04 19:10:00,22.4,15.4,29.93,NNW,327,0.0,6.0,74,0.00,,,0.00,Wunderground v.1.15,2013-02-05 01:10:00,
2013-02-04 19:20:00,22.1,15.1,29.93,NNW,327,0.0,6.0,74,0.00,,,0.00,Wunderground v.1.15,2013-02-05 01:20:00,
2013-02-04 19:30:00,21.8,14.8,29.92,NNW,327,0.0,6.0,74,0.00,,,0.00,Wunderground v.1.15,2013-02-05 01:30:00,
2013-02-04 19:40:00,21.6,14.6,29.92,NNW,327,0.0,6.0,74,0.00,,,0.00,Wunderground v.1.15,2013-02-05 01:40:00,
2013-02-04 19:50:00,21.1,14.4,29.92,NNW,327,0.0,6.0,75,0.00,,,0.00,Wunderground v.1.15,2013-02-05 01:50:00,
2013-02-04 20:00:00,20.8,14.1,29.93,NNW,327,0.0,6.0,75,0.00,,,0.00,Wunderground v.1.15,2013-02-05 02:00:00,
2013-02-04 20:10:00,20.5,14.1,29.93,NNW,327,0.0,6.0,76,0.00,,,0.00,Wunderground v.1.15,2013-02-05 02:10:00,
2013-02-04 20:20:00,20.2,13.8,29.92,NNW,327,0.0,6.0,76,0.00,,,0.00,Wunderground v.1.15,2013-02-05 02:20:00,
2013-02-04 20:30:00,20.0,13.6,29.91,NNW,327,0.0,6.0,76,0.00,,,0.00,Wunderground v.1.15,2013-02-05 02:30:00,
2013-02-04 20:40:00,19.9,13.9,29.91,NNW,327,0.0,6.0,77,0.00,,,0.00,Wunderground v.1.15,2013-02-05 02:40:00,
2013-02-04 20:50:00,19.5,13.5,29.91,NNW,327,0.0,6.0,77,0.00,,,0.00,Wunderground v.1.15,2013-02-05 02:50:00,
2013-02-04 21:00:00,19.4,13.7,29.90,NNW,327,0.0,6.0,78,0.00,,,0.00,Wunderground v.1.15,2013-02-05 03:00:00,
2013-02-04 21:10:00,19.2,13.5,29.90,NNW,327,0.0,6.0,78,0.00,,,0.00,Wunderground v.1.15,2013-02-05 03:10:00,
2013-02-04 21:20:00,19.1,13.7,29.89,NNW,327,0.0,6.0,79,0.00,,,0.00,Wunderground v.1.15,2013-02-05 03:20:00,
2013-02-04 21:30:00,18.8,13.4,29.91,NNW,327,0.0,6.0,79,0.00,,,0.00,Wunderground v.1.15,2013-02-05 03:30:00,
2013-02-04 21:40:00,18.8,13.7,29.91,NNW,327,0.0,6.0,80,0.00,,,0.00,Wunderground v.1.15,2013-02-05 03:40:00,
2013-02-04 21:50:00,18.8,13.7,29.92,NNW,327,0.0,6.0,80,0.00,,,0.00,Wunderground v.1.15,2013-02-05 03:50:00,
2013-02-04 22:00:00,18.8,13.7,29.92,NNW,327,0.0,6.0,80,0.00,,,0.00,Wunderground v.1.15,2013-02-05 04:00:00,
2013-02-04 22:10:00,18.8,13.9,29.92,NNW,327,0.0,6.0,81,0.00,,,0.00,Wunderground v.1.15,2013-02-05 04:10:00,
2013-02-04 22:20:00,18.8,13.9,29.91,NNW,327,0.0,6.0,81,0.00,,,0.00,Wunderground v.1.15,2013-02-05 04:20:00,
2013-02-04 22:30:00,18.8,13.9,29.91,NNW,327,0.0,6.0,81,0.00,,,0.00,Wunderground v.1.15,2013-02-05 04:30:00,
2013-02-04 22:40:00,18.8,13.9,29.91,NNW,327,0.0,6.0,81,0.00,,,0.00,Wunderground v.1.15,2013-02-05 04:40:00,
2013-02-04 22:50:00,18.9,14.3,29.91,NNW,327,0.0,6.0,82,0.00,,,0.00,Wunderground v.1.15,2013-02-05 04:50:00,
2013-02-04 23:00:00,19.1,14.5,29.91,WSW,243,0.0,6.0,82,0.00,,,0.00,Wunderground v.1.15,2013-02-05 05:00:00,
2013-02-04 23:10:00,19.2,14.9,29.91,WSW,243,0.0,6.0,83,0.00,,,0.00,Wunderground v.1.15,2013-02-05 05:10:00,
2013-02-04 23:20:00,19.5,15.2,29.90,WSW,243,0.0,6.0,83,0.00,,,0.00,Wunderground v.1.15,2013-02-05 05:20:00,
2013-02-04 23:30:00,19.9,15.6,29.89,SSW,212,0.0,6.0,83,0.00,,,0.00,Wunderground v.1.15,2013-02-05 05:30:00,
2013-02-04 23:40:00,20.2,15.9,29.89,SSW,207,0.0,6.0,83,0.00,,,0.00,Wunderground v.1.15,2013-02-05 05:40:00,
2013-02-04 23:50:00,20.5,16.2,29.88,SSW,207,0.0,6.0,83,0.00,,,0.00,Wunderground v.1.15,2013-02-05 05:50:00,